Modesto, CA

10:27 PM PDT on October 20, 2017 (GMT -0700)
Modesto City-County-Sham

Weather History for KMOD - February, 2015

Change the Weather History Date:

Saturday, February 7, 2015

  Actual Average Record
Temperature  
Mean Temperature 64 °F -  
Max Temperature 70 °F 61 °F 74 °F (1987)
Min Temperature 57 °F 42 °F 25 °F (1989)
Degree Days  
Heating Degree Days 1 14  
Month to date heating degree days 55 100  
Since 1 July heating degree days 1232 1532  
Cooling Degree Days 0 0  
Month to date cooling degree days 0 0  
Year to date cooling degree days 0 0  
Growing Degree Days 14 (Base 50)    
Moisture  
Dew Point 57 °F    
Average Humidity 82    
Maximum Humidity 93    
Minimum Humidity 70    
Precipitation  
Precipitation 0.36 in 0.09 in 1.53 in (1998)
Month to date precipitation 0.46 0.64  
Year to date precipitation 0.46 3.25  
Snow  
Snow 0.00 in - - ()
Month to date snowfall 0.0  
Since 1 July snowfall 0.0  
Snow Depth 0.00 in    
Sea Level Pressure  
Sea Level Pressure 30.04 in    
Wind  
Wind Speed 8 mph (SSE)    
Max Wind Speed 20 mph    
Max Gust Speed 34 mph    
Visibility 7 miles    
Events Rain    
T = Trace of Precipitation, MM = Missing Value Source: NWS Daily Summary

Daily Weather History Graph

Daily Weather History Graph

Search for Another Location

Airport or City:

Trip Planner

Search our weather history database for the weather conditions in past years. The results will help you decide how hot, cold, wet, or windy it might be!

Date:

Astronomy

Feb. 07, 2015 Rise Set
Actual Time 7:02 AM PST 5:34 PM PST
Civil Twilight 6:34 AM PST 6:01 PM PST
Nautical Twilight 6:03 AM PST 6:32 PM PST
Astronomical Twilight 5:33 AM PST 7:03 PM PST
Moon 9:17 PM PST (2/7) 8:45 AM PST (2/7)
Length of Visible Light 11h 26m
Length of Day
10h 32m
Waning Gibbous, 87% of the Moon is Illuminated
Feb 7
Waning Gibbous
Feb 11
Last Quarter
Feb 18
New
Feb 25
First Quarter
Mar 5
Full

Hourly Weather History & Observations

Time (PST) Temp. Dew Point Humidity Pressure Visibility Wind Dir Wind Speed Gust Speed Precip Events Conditions
12:53 AM 59.0 °F 54.0 °F 83% 29.99 in 10.0 mi North - - N/A   Overcast
1:53 AM 60.1 °F 54.0 °F 80% 30.00 in 10.0 mi SE 10.4 mph 19.6 mph 0.00 in   Overcast
2:19 AM 60.1 °F 54.0 °F 80% 30.01 in 7.0 mi SE 12.7 mph 21.9 mph 0.00 in Rain Light Rain
2:53 AM 59.0 °F 55.0 °F 87% 30.02 in 2.5 mi ESE 9.2 mph - 0.04 in Rain Rain
3:03 AM 59.0 °F 54.0 °F 83% 30.02 in 4.0 mi North - - 0.01 in Rain Light Rain
3:53 AM 59.0 °F 55.0 °F 87% 30.01 in 5.0 mi South 6.9 mph - 0.04 in Rain Light Rain
4:36 AM 57.9 °F 54.0 °F 87% 30.02 in 5.0 mi SSE 4.6 mph - 0.01 in Rain Light Rain
4:53 AM 59.0 °F 54.0 °F 83% 30.03 in 9.0 mi Variable 4.6 mph - 0.01 in Rain Light Rain
5:53 AM 57.0 °F 54.0 °F 89% 30.03 in 9.0 mi SSE 5.8 mph - 0.00 in   Overcast
6:09 AM 57.0 °F 54.0 °F 89% 30.03 in 10.0 mi East 3.5 mph - N/A   Overcast
6:53 AM 59.0 °F 53.1 °F 81% 30.04 in 10.0 mi SE 5.8 mph - N/A   Overcast
7:53 AM 59.0 °F 53.1 °F 81% 30.06 in 10.0 mi SSE 8.1 mph - N/A   Overcast
8:53 AM 57.9 °F 54.0 °F 87% 30.06 in 10.0 mi SSE 6.9 mph - 0.01 in Rain Light Rain
9:50 AM 60.8 °F 55.4 °F 82% 30.07 in 10.0 mi SSE 8.1 mph - 0.03 in   Overcast
9:53 AM 60.1 °F 55.0 °F 83% 30.08 in 10.0 mi SSE 9.2 mph - 0.03 in   Overcast
10:51 AM 60.8 °F 55.4 °F 82% 30.07 in 7.0 mi SSE 12.7 mph 18.4 mph N/A   Overcast
10:53 AM 60.1 °F 55.9 °F 86% 30.07 in 8.0 mi SSE 11.5 mph 18.4 mph N/A   Overcast
11:18 AM 61.0 °F 55.9 °F 83% 30.06 in 10.0 mi SE 9.2 mph - N/A   Overcast
11:53 AM 63.0 °F 57.0 °F 81% 30.06 in 7.0 mi SE 10.4 mph - 0.00 in Rain Light Rain
12:25 PM 62.1 °F 57.9 °F 86% 30.05 in 2.0 mi SSE 9.2 mph - 0.04 in Rain Light Rain
12:29 PM 63.0 °F 59.0 °F 87% 30.04 in 4.0 mi SE 9.2 mph - 0.04 in Rain Light Rain
12:53 PM 66.0 °F 60.1 °F 81% 30.04 in 4.0 mi SSE 9.2 mph - 0.04 in   Haze
1:53 PM 69.1 °F 61.0 °F 75% 30.02 in 10.0 mi SE 9.2 mph - N/A   Mostly Cloudy
2:53 PM 70.0 °F 59.0 °F 68% 30.01 in 10.0 mi SSE 9.2 mph - N/A   Overcast
3:25 PM 68.0 °F 61.0 °F 78% 30.02 in 3.0 mi SW 10.4 mph - 0.10 in Rain Light Rain
3:33 PM 66.0 °F 63.0 °F 90% 30.02 in 3.0 mi Variable 4.6 mph - 0.19 in Rain Light Rain
3:53 PM 68.0 °F 64.0 °F 87% 30.02 in 10.0 mi South 6.9 mph - 0.19 in   Mostly Cloudy
4:53 PM 68.0 °F 64.9 °F 90% 30.03 in 10.0 mi SE 5.8 mph - N/A   Overcast
5:53 PM 64.9 °F 61.0 °F 87% 30.04 in 10.0 mi SE 5.8 mph - N/A   Clear
6:53 PM 64.0 °F 60.1 °F 87% 30.06 in 8.0 mi SE 6.9 mph - N/A   Clear
7:53 PM 63.0 °F 60.1 °F 90% 30.07 in 10.0 mi SSE 6.9 mph - N/A   Clear
8:53 PM 61.0 °F 57.9 °F 90% 30.09 in 10.0 mi ESE 5.8 mph - N/A   Clear
9:53 PM 59.0 °F 57.0 °F 93% 30.09 in 6.0 mi ESE 8.1 mph - N/A   Clear
10:53 PM 61.0 °F 57.9 °F 90% 30.09 in 3.0 mi North - - N/A   Clear
11:30 PM 61.0 °F 57.9 °F 90% 30.09 in 2.5 mi North - - N/A   Clear
11:53 PM 60.1 °F 57.9 °F 93% 30.08 in 2.5 mi SE 4.6 mph - N/A   Clear